"Pseudo-MPEC" for P117RZw

Created 2020 Oct 25 17:07:20 UT using Find_Orb

Click here for an explanation of pseudo-MPECs

 
 Astrometry: 
     P117RZw  C2020 10 14[JZa?WEgAstrometrygD-/\Pfmm=Dl!HM8v?f[K2um#;$H\l(y7=F51
     P117RZw  C2020 10 14OWdvt.BOVpB-5.h`@+5gbPredacted;leg8mG7_@(77^fG..TCpCF51
     P117RZw  C2020 10 14]k(MclickXD#$/DhereWl-0for'X9wIexplanation*6j+DR`BI]F51

Station data:
(F51) Pan-STARRS 1, Haleakala  (N20.707235 W156.255910)  US/Hawaii.
   Observers N. Primak, A. Schultz, S. Watters, J. Thiel, T. Goggia. Measurer
   PS1 Science Consortium. 1.8-m Ritchey-Chrétien + CCD.

Orbital elements:  P117RZw
   Perihelion 2020 Oct 10.834362 +/- 35.6 TT = 20:01:28 (JD 2459133.334362)
Epoch 2020 Oct 14.0 TT = JDT 2459136.5   Earth MOID: 0.0268   AutoNEOCP
M   2.46665192 +/- 16               (J2000 ecliptic)
n   0.77919595 +/- 0.367            Peri.  234.71824 +/- 110
a   1.16960241 +/- 0.367            Node   143.01754 +/- 60
e   0.1248807 +/- 0.25              Incl.    0.96440 +/- 5.5
P   1.26/462.01d           H 28.9   G  0.15   U 12.1  SR
q 1.02354160 +/- 0.164    Q 1.31566323 +/- 45.2
From 3 observations 2020 Oct. 14 (44.6 min); mean residual 0".13
Residuals in arcseconds: 
201014 F51  .04-  .17-    201014 F51  .05+  .25+    201014 F51  .02-  .08-    

Ephemerides (geocentric):
Date (UTC) HH   RA              Dec         delta   r     elong  mag " sig PA
---- -- -- --  -------------   -----------  ------ ------ -----  --- ---- ---
2020 10 25 17  03 03 11.002   -09 43 54.41  .03706 1.0274 153.1 22.9  66d 168
2020 10 25 18  03 03 18.280   -09 42 19.36  .03710 1.0274 153.1 22.9  66d 168
2020 10 25 19  03 03 25.541   -09 40 44.35  .03713 1.0274 153.1 22.9  66d 168
2020 10 25 20  03 03 32.785   -09 39 09.39  .03716 1.0274 153.1 22.9  66d 168
2020 10 25 21  03 03 40.011   -09 37 34.48  .03719 1.0274 153.1 22.9  66d 168
2020 10 25 22  03 03 47.220   -09 35 59.62  .03722 1.0275 153.2 22.9  66d 168
2020 10 25 23  03 03 54.412   -09 34 24.81  .03725 1.0275 153.2 22.9  66d 168
2020 10 26 00  03 04 01.587   -09 32 50.05  .03729 1.0275 153.2 22.9  66d 168
2020 10 26 01  03 04 08.744   -09 31 15.34  .03732 1.0275 153.2 23.0  66d 168
2020 10 26 02  03 04 15.884   -09 29 40.67  .03735 1.0276 153.2 23.0  66d 168
2020 10 26 03  03 04 23.007   -09 28 06.06  .03738 1.0276 153.2 23.0  66d 168
2020 10 26 04  03 04 30.112   -09 26 31.50  .03741 1.0276 153.3 23.0  66d 168
2020 10 26 05  03 04 37.201   -09 24 56.99  .03745 1.0276 153.3 23.0  66d 168
2020 10 26 06  03 04 44.273   -09 23 22.52  .03748 1.0276 153.3 23.0  66d 168
2020 10 26 07  03 04 51.327   -09 21 48.11  .03751 1.0277 153.3 23.0  66d 168
2020 10 26 08  03 04 58.365   -09 20 13.75  .03754 1.0277 153.3 23.0  66d 168
2020 10 26 09  03 05 05.385   -09 18 39.44  .03757 1.0277 153.3 23.0  66d 168
2020 10 26 10  03 05 12.389   -09 17 05.18  .03761 1.0277 153.4 23.0  66d 168
2020 10 26 11  03 05 19.376   -09 15 30.97  .03764 1.0278 153.4 23.0  66d 168
2020 10 26 12  03 05 26.345   -09 13 56.81  .03767 1.0278 153.4 23.0  66d 168
2020 10 26 13  03 05 33.298   -09 12 22.71  .03770 1.0278 153.4 23.0  66d 168
2020 10 26 14  03 05 40.234   -09 10 48.65  .03774 1.0278 153.4 23.0  66d 168
2020 10 26 15  03 05 47.154   -09 09 14.65  .03777 1.0278 153.4 23.0  66d 168
2020 10 26 16  03 05 54.056   -09 07 40.70  .03780 1.0279 153.4 23.0  66d 168
2020 10 26 17  03 06 00.942   -09 06 06.80  .03783 1.0279 153.5 23.0  66d 168
2020 10 26 18  03 06 07.811   -09 04 32.95  .03787 1.0279 153.5 23.0  66d 168
2020 10 26 19  03 06 14.663   -09 02 59.16  .03790 1.0279 153.5 23.0  67d 168
2020 10 26 20  03 06 21.499   -09 01 25.42  .03793 1.0280 153.5 23.0  67d 168
2020 10 26 21  03 06 28.318   -08 59 51.73  .03796 1.0280 153.5 23.0  67d 168
2020 10 26 22  03 06 35.121   -08 58 18.09  .03800 1.0280 153.5 23.0  67d 168
2020 10 26 23  03 06 41.907   -08 56 44.50  .03803 1.0280 153.6 23.0  67d 168
2020 10 27 00  03 06 48.676   -08 55 10.97  .03806 1.0280 153.6 23.0  67d 168
2020 10 27 01  03 06 55.429   -08 53 37.49  .03810 1.0281 153.6 23.0  67d 168
2020 10 27 02  03 07 02.165   -08 52 04.07  .03813 1.0281 153.6 23.0  67d 168
2020 10 27 03  03 07 08.885   -08 50 30.69  .03816 1.0281 153.6 23.0  67d 168
2020 10 27 04  03 07 15.589   -08 48 57.37  .03819 1.0281 153.6 23.0  67d 168
2020 10 27 05  03 07 22.276   -08 47 24.11  .03823 1.0282 153.7 23.0  67d 168
2020 10 27 06  03 07 28.946   -08 45 50.90  .03826 1.0282 153.7 23.0  67d 168
2020 10 27 07  03 07 35.601   -08 44 17.74  .03829 1.0282 153.7 23.0  67d 168
2020 10 27 08  03 07 42.239   -08 42 44.63  .03833 1.0282 153.7 23.0  67d 168
2020 10 27 09  03 07 48.861   -08 41 11.58  .03836 1.0283 153.7 23.0  67d 168
2020 10 27 10  03 07 55.466   -08 39 38.58  .03839 1.0283 153.7 23.0  67d 168
2020 10 27 11  03 08 02.055   -08 38 05.64  .03843 1.0283 153.8 23.0  67d 168
2020 10 27 12  03 08 08.629   -08 36 32.75  .03846 1.0283 153.8 23.0  67d 168
2020 10 27 13  03 08 15.185   -08 34 59.92  .03849 1.0284 153.8 23.0  67d 168
2020 10 27 14  03 08 21.726   -08 33 27.14  .03853 1.0284 153.8 23.0  67d 168
2020 10 27 15  03 08 28.251   -08 31 54.41  .03856 1.0284 153.8 23.0  67d 168
2020 10 27 16  03 08 34.760   -08 30 21.74  .03859 1.0284 153.8 23.0  67d 168